Time,TemperatureF,DewpointF,PressureIn,WindDirection,WindDirectionDegrees,WindSpeedMPH,WindSpeedGustMPH,Humidity,HourlyPrecipIn,Conditions,Clouds,dailyrainin,SoftwareType,DateUTC
2013-05-16 00:01:00,42.0,37.0,-100.00,NE,50,3.0,6.0,84,-99.99,,,0.00,,2013-05-16 06:01:00,
2013-05-16 01:00:00,38.0,35.0,-100.00,NE,50,3.0,4.0,90,-99.99,,,0.00,,2013-05-16 07:00:00,
2013-05-16 01:12:00,39.0,35.0,-100.00,East,85,2.0,4.0,88,-99.99,,,0.00,,2013-05-16 07:12:00,
2013-05-16 01:24:00,39.0,35.0,-100.00,East,85,2.0,4.0,88,-99.99,,,0.00,,2013-05-16 07:24:00,
2013-05-16 01:34:00,38.0,35.0,-100.00,NE,50,3.0,4.0,90,-99.99,,,0.00,,2013-05-16 07:34:00,
2013-05-16 01:44:00,38.0,35.0,-100.00,NE,50,3.0,4.0,90,-99.99,,,0.00,,2013-05-16 07:44:00,
2013-05-16 01:54:00,38.0,35.0,-100.00,NE,50,3.0,4.0,90,-99.99,,,0.00,,2013-05-16 07:54:00,
2013-05-16 02:01:00,36.0,34.0,-100.00,NE,40,3.0,4.0,91,-99.99,,,0.00,,2013-05-16 08:01:00,
2013-05-16 02:13:00,38.0,35.0,-100.00,ENE,60,1.0,2.0,91,-99.99,,,0.00,,2013-05-16 08:13:00,
2013-05-16 02:23:00,38.0,35.0,-100.00,ENE,60,1.0,2.0,91,-99.99,,,0.00,,2013-05-16 08:23:00,
2013-05-16 02:34:00,36.0,34.0,-100.00,NE,40,3.0,4.0,91,-99.99,,,0.00,,2013-05-16 08:34:00,
2013-05-16 02:44:00,36.0,34.0,-100.00,NE,40,3.0,4.0,91,-99.99,,,0.00,,2013-05-16 08:44:00,
2013-05-16 02:54:00,36.0,34.0,-100.00,NE,40,3.0,4.0,91,-99.99,,,0.00,,2013-05-16 08:54:00,
2013-05-16 03:01:00,35.0,33.0,-100.00,NNE,25,3.0,3.0,93,-99.99,,,0.00,,2013-05-16 09:01:00,
2013-05-16 03:14:00,37.0,35.0,-100.00,East,90,0.0,3.0,92,-99.99,,,0.00,,2013-05-16 09:14:00,
2013-05-16 03:24:00,37.0,35.0,-100.00,East,90,0.0,3.0,92,-99.99,,,0.00,,2013-05-16 09:24:00,
2013-05-16 03:35:00,35.0,33.0,-100.00,NNE,25,3.0,3.0,93,-99.99,,,0.00,,2013-05-16 09:35:00,
2013-05-16 03:45:00,35.0,33.0,-100.00,NNE,25,3.0,3.0,93,-99.99,,,0.00,,2013-05-16 09:45:00,
2013-05-16 03:55:00,35.0,33.0,-100.00,NNE,25,3.0,3.0,93,-99.99,,,0.00,,2013-05-16 09:55:00,
2013-05-16 04:01:00,35.0,33.0,-100.00,NNE,30,2.0,3.0,93,-99.99,,,0.00,,2013-05-16 10:01:00,
2013-05-16 04:15:00,35.0,33.0,-100.00,NNE,20,1.0,1.0,92,-99.99,,,0.00,,2013-05-16 10:15:00,
2013-05-16 04:24:00,35.0,33.0,-100.00,NNE,20,1.0,1.0,92,-99.99,,,0.00,,2013-05-16 10:24:00,
2013-05-16 04:35:00,35.0,33.0,-100.00,NNE,30,2.0,3.0,93,-99.99,,,0.00,,2013-05-16 10:35:00,
2013-05-16 04:45:00,35.0,33.0,-100.00,NNE,30,2.0,3.0,93,-99.99,,,0.00,,2013-05-16 10:45:00,
2013-05-16 04:56:00,35.0,33.0,-100.00,NNE,30,2.0,3.0,93,-99.99,,,0.00,,2013-05-16 10:56:00,
2013-05-16 05:01:00,33.0,32.0,-100.00,NE,40,3.0,4.0,94,-99.99,,,0.00,,2013-05-16 11:01:00,
2013-05-16 05:14:00,34.0,33.0,-100.00,NE,40,3.0,3.0,94,-99.99,,,0.00,,2013-05-16 11:14:00,
2013-05-16 05:25:00,34.0,33.0,-100.00,NE,40,3.0,3.0,94,-99.99,,,0.00,,2013-05-16 11:25:00,
2013-05-16 05:35:00,33.0,32.0,-100.00,NE,40,3.0,4.0,94,-99.99,,,0.00,,2013-05-16 11:35:00,
2013-05-16 05:46:00,33.0,32.0,-100.00,NE,40,3.0,4.0,94,-99.99,,,0.00,,2013-05-16 11:46:00,
2013-05-16 05:56:00,33.0,32.0,-100.00,NE,40,3.0,4.0,94,-99.99,,,0.00,,2013-05-16 11:56:00,
2013-05-16 06:01:00,34.0,33.0,-100.00,NE,35,3.0,3.0,94,-99.99,,,0.00,,2013-05-16 12:01:00,
2013-05-16 06:13:00,33.0,32.0,-100.00,NNE,30,3.0,3.0,94,-99.99,,,0.00,,2013-05-16 12:13:00,
2013-05-16 06:23:00,33.0,32.0,-100.00,NNE,30,3.0,3.0,94,-99.99,,,0.00,,2013-05-16 12:23:00,
2013-05-16 06:34:00,34.0,33.0,-100.00,NE,35,3.0,3.0,94,-99.99,,,0.00,,2013-05-16 12:34:00,
2013-05-16 06:45:00,34.0,33.0,-100.00,NE,35,3.0,3.0,94,-99.99,,,0.00,,2013-05-16 12:45:00,
2013-05-16 06:53:00,34.0,33.0,-100.00,NE,35,3.0,3.0,94,-99.99,,,0.00,,2013-05-16 12:53:00,
2013-05-16 07:12:00,33.0,32.0,-100.00,North,5,1.0,3.0,94,-99.99,,,0.00,,2013-05-16 13:12:00,
2013-05-16 07:26:00,33.0,32.0,-100.00,North,5,1.0,3.0,94,-99.99,,,0.00,,2013-05-16 13:26:00,
2013-05-16 07:35:00,35.0,34.0,-100.00,SE,145,0.0,1.0,95,-99.99,,,0.00,,2013-05-16 13:35:00,
2013-05-16 07:43:00,35.0,34.0,-100.00,SE,145,0.0,1.0,95,-99.99,,,0.00,,2013-05-16 13:43:00,
2013-05-16 07:55:00,36.0,35.0,-100.00,NE,45,3.0,3.0,94,-99.99,,,0.00,,2013-05-16 13:55:00,
2013-05-16 08:05:00,36.0,35.0,-100.00,NE,45,3.0,3.0,94,-99.99,,,0.00,,2013-05-16 14:05:00,
2013-05-16 08:15:00,36.0,34.0,-100.00,NNE,15,3.0,4.0,93,-99.99,,,-99.99,,2013-05-16 14:15:00,
2013-05-16 08:23:00,36.0,34.0,-100.00,NNE,15,3.0,4.0,93,-99.99,,,-99.99,,2013-05-16 14:23:00,
2013-05-16 08:37:00,37.0,36.0,-100.00,NNE,30,3.0,3.0,94,-99.99,,,0.00,,2013-05-16 14:37:00,
2013-05-16 08:47:00,37.0,36.0,-100.00,NNE,30,3.0,3.0,94,-99.99,,,0.00,,2013-05-16 14:47:00,
2013-05-16 08:55:00,37.0,36.0,-100.00,NNE,30,3.0,3.0,94,-99.99,,,0.00,,2013-05-16 14:55:00,
2013-05-16 09:08:00,37.0,36.0,-100.00,NNE,30,3.0,3.0,94,-99.99,,,0.00,,2013-05-16 15:08:00,
2013-05-16 09:17:00,38.0,36.0,-100.00,North,5,3.0,3.0,94,-99.99,,,0.00,,2013-05-16 15:17:00,
2013-05-16 09:28:00,38.0,36.0,-100.00,North,5,3.0,3.0,94,-99.99,,,0.00,,2013-05-16 15:28:00,
2013-05-16 09:40:00,40.0,39.0,-100.00,North,355,2.0,3.0,94,-99.99,,,0.00,,2013-05-16 15:40:00,
2013-05-16 09:50:00,40.0,39.0,-100.00,North,355,2.0,3.0,94,-99.99,,,0.00,,2013-05-16 15:50:00,
2013-05-16 10:00:00,41.0,39.0,-100.00,NNE,20,1.0,4.0,92,-99.99,,,-99.99,,2013-05-16 16:00:00,
2013-05-16 10:09:00,41.0,39.0,-100.00,NNE,20,1.0,4.0,92,-99.99,,,-99.99,,2013-05-16 16:09:00,
2013-05-16 10:19:00,43.0,39.0,-100.00,NE,40,2.0,5.0,87,-99.99,,,0.00,,2013-05-16 16:19:00,
2013-05-16 10:30:00,43.0,39.0,-100.00,NE,40,2.0,5.0,87,-99.99,,,0.00,,2013-05-16 16:30:00,
2013-05-16 10:40:00,45.0,-99.9,-100.00,North,0,1.0,3.0,80,-99.99,,,0.00,,2013-05-16 16:40:00,
2013-05-16 10:50:00,45.0,39.0,-100.00,North,0,1.0,3.0,80,-99.99,,,0.00,,2013-05-16 16:50:00,
2013-05-16 11:00:00,44.0,37.0,-100.00,SSW,200,3.0,4.0,76,-99.99,,,-99.99,,2013-05-16 17:00:00,
2013-05-16 11:10:00,44.0,37.0,-100.00,SSW,200,3.0,4.0,76,-99.99,,,-99.99,,2013-05-16 17:10:00,
2013-05-16 11:20:00,45.0,38.0,-100.00,SW,215,3.0,6.0,76,-99.99,,,0.00,,2013-05-16 17:20:00,
2013-05-16 11:30:00,45.0,38.0,-100.00,SW,215,3.0,6.0,76,-99.99,,,0.00,,2013-05-16 17:30:00,
2013-05-16 11:40:00,46.0,39.0,-100.00,WSW,250,3.0,5.0,75,-99.99,,,0.00,,2013-05-16 17:40:00,
2013-05-16 11:50:00,46.0,-99.9,-100.00,WSW,250,3.0,5.0,75,-99.99,,,0.00,,2013-05-16 17:50:00,
2013-05-16 12:00:00,47.0,-99.9,-100.00,SSW,205,5.0,6.0,68,-99.99,,,0.00,,2013-05-16 18:00:00,
2013-05-16 12:10:00,47.0,37.0,-100.00,SSW,205,5.0,6.0,68,-99.99,,,0.00,,2013-05-16 18:10:00,
2013-05-16 12:20:00,48.0,37.0,-100.00,West,270,1.0,3.0,64,-99.99,,,0.00,,2013-05-16 18:20:00,
2013-05-16 12:30:00,-999.0,-99.9,-100.00,West,270,1.0,3.0,64,-99.99,,,0.00,,2013-05-16 18:30:00,
2013-05-16 12:40:00,-999.0,-99.9,-100.00,West,260,8.0,14.0,71,-99.99,,,0.00,,2013-05-16 18:40:00,
2013-05-16 12:50:00,-999.0,-99.9,-100.00,West,260,8.0,14.0,71,-99.99,,,0.00,,2013-05-16 18:50:00,
2013-05-16 13:20:00,48.0,38.0,-100.00,West,265,8.0,12.0,67,-99.99,,,0.00,,2013-05-16 19:20:00,
2013-05-16 13:30:00,48.0,38.0,-100.00,West,265,8.0,12.0,67,-99.99,,,0.00,,2013-05-16 19:30:00,
2013-05-16 13:40:00,49.0,-99.9,-100.00,SW,220,9.0,11.0,64,-99.99,,,-99.99,,2013-05-16 19:40:00,
2013-05-16 13:50:00,-999.0,-99.9,-100.00,SW,220,9.0,11.0,64,-99.99,,,-99.99,,2013-05-16 19:50:00,
2013-05-16 14:00:00,49.0,-99.9,-100.00,SW,225,13.0,15.0,65,-99.99,,,0.00,,2013-05-16 20:00:00,
2013-05-16 14:10:00,-999.0,-99.9,-100.00,SW,225,13.0,15.0,65,-99.99,,,0.00,,2013-05-16 20:10:00,
2013-05-16 14:20:00,49.0,-99.9,-100.00,NW,320,6.0,12.0,66,-99.99,,,0.00,,2013-05-16 20:20:00,
2013-05-16 14:30:00,49.0,38.0,-100.00,NW,320,6.0,12.0,66,-99.99,,,0.00,,2013-05-16 20:30:00,
2013-05-16 14:40:00,-999.0,-99.9,-100.00,NW,310,5.0,10.0,63,-99.99,,,-99.99,,2013-05-16 20:40:00,
2013-05-16 14:50:00,50.0,38.0,-100.00,NW,310,5.0,10.0,63,-99.99,,,-99.99,,2013-05-16 20:50:00,
2013-05-16 15:00:00,49.0,40.0,-100.00,WNW,300,11.0,15.0,72,-99.99,,,0.00,,2013-05-16 21:00:00,
2013-05-16 15:10:00,49.0,-99.9,-100.00,WNW,300,11.0,15.0,72,-99.99,,,0.00,,2013-05-16 21:10:00,
2013-05-16 15:20:00,48.0,-99.9,-100.00,NW,315,11.0,14.0,72,-99.99,,,0.00,,2013-05-16 21:20:00,
2013-05-16 15:27:00,48.0,39.0,-100.00,NW,310,8.0,13.0,70,-99.99,,,0.00,,2013-05-16 21:27:00,
2013-05-16 15:29:00,48.0,40.0,-100.00,NW,315,11.0,14.0,72,-99.99,,,0.00,,2013-05-16 21:29:00,
2013-05-16 15:38:00,48.0,39.0,-100.00,NW,315,10.0,14.0,71,-99.99,,,-99.99,,2013-05-16 21:38:00,
2013-05-16 15:50:00,48.0,-99.9,-100.00,NW,315,10.0,14.0,71,-99.99,,,-99.99,,2013-05-16 21:50:00,
2013-05-16 16:00:00,-999.0,-99.9,-100.00,NW,310,8.0,13.0,70,-99.99,,,0.00,,2013-05-16 22:00:00,
2013-05-16 16:08:00,48.0,39.0,-100.00,NW,310,8.0,13.0,70,-99.99,,,0.00,,2013-05-16 22:08:00,
2013-05-16 16:20:00,48.0,39.0,-100.00,NW,310,8.0,13.0,70,-99.99,,,0.00,,2013-05-16 22:20:00,
2013-05-16 16:40:00,49.0,37.0,-100.00,NW,325,4.0,10.0,63,-99.99,,,0.00,,2013-05-16 22:40:00,
2013-05-16 16:50:00,49.0,37.0,-100.00,NW,325,4.0,10.0,63,-99.99,,,0.00,,2013-05-16 22:50:00,
2013-05-16 17:00:00,50.0,38.0,-100.00,WNW,295,7.0,13.0,62,-99.99,,,0.00,,2013-05-16 23:00:00,
2013-05-16 17:06:00,50.0,38.0,-100.00,WNW,295,7.0,13.0,62,-99.99,,,0.00,,2013-05-16 23:06:00,
2013-05-16 17:16:00,50.0,38.0,-100.00,NW,305,8.0,10.0,62,-99.99,,,-99.99,,2013-05-16 23:16:00,
2013-05-16 17:24:00,50.0,38.0,-100.00,NW,305,8.0,10.0,62,-99.99,,,-99.99,,2013-05-16 23:24:00,
2013-05-16 17:34:00,50.0,38.0,-100.00,NW,305,8.0,10.0,62,-99.99,,,-99.99,,2013-05-16 23:34:00,
2013-05-16 17:45:00,50.0,38.0,-100.00,NW,305,8.0,10.0,62,-99.99,,,-99.99,,2013-05-16 23:45:00,
2013-05-16 17:54:00,50.0,34.0,-100.00,NNW,340,7.0,9.0,54,-99.99,,,0.00,,2013-05-16 23:54:00,
2013-05-16 18:02:00,50.0,34.0,-100.00,NNW,340,7.0,9.0,54,-99.99,,,0.00,,2013-05-17 00:02:00,
2013-05-16 18:13:00,52.0,37.0,-100.00,WNW,300,8.0,11.0,56,-99.99,,,0.00,,2013-05-17 00:13:00,
2013-05-16 18:22:00,52.0,37.0,-100.00,WNW,300,8.0,11.0,56,-99.99,,,0.00,,2013-05-17 00:22:00,
2013-05-16 18:33:00,50.0,34.0,-100.00,WNW,295,4.0,8.0,54,-99.99,,,0.00,,2013-05-17 00:33:00,
2013-05-16 18:43:00,50.0,34.0,-100.00,WNW,295,4.0,8.0,54,-99.99,,,0.00,,2013-05-17 00:43:00,
2013-05-16 18:52:00,51.0,36.0,-100.00,NW,310,6.0,8.0,57,-99.99,,,0.00,,2013-05-17 00:52:00,
2013-05-16 19:03:00,51.0,36.0,-100.00,NW,310,6.0,8.0,57,-99.99,,,0.00,,2013-05-17 01:03:00,
2013-05-16 19:12:00,50.0,35.0,-100.00,NW,305,6.0,8.0,56,-99.99,,,0.00,,2013-05-17 01:12:00,
2013-05-16 19:23:00,50.0,35.0,-100.00,NW,305,6.0,8.0,56,-99.99,,,0.00,,2013-05-17 01:23:00,
2013-05-16 19:32:00,50.0,34.0,-100.00,NNW,330,6.0,9.0,55,-99.99,,,0.00,,2013-05-17 01:32:00,
2013-05-16 19:43:00,50.0,34.0,-100.00,NNW,330,6.0,9.0,55,-99.99,,,0.00,,2013-05-17 01:43:00,
2013-05-16 19:52:00,50.0,35.0,-100.00,NW,310,7.0,8.0,56,-99.99,,,0.00,,2013-05-17 01:52:00,
2013-05-16 20:02:00,50.0,35.0,-100.00,NW,310,7.0,8.0,56,-99.99,,,0.00,,2013-05-17 02:02:00,
2013-05-16 20:11:00,50.0,36.0,-100.00,NW,310,5.0,8.0,59,-99.99,,,0.00,,2013-05-17 02:11:00,
2013-05-16 20:21:00,50.0,36.0,-100.00,NW,310,5.0,8.0,59,-99.99,,,0.00,,2013-05-17 02:21:00,
2013-05-16 20:32:00,49.0,35.0,-100.00,NNW,330,4.0,8.0,58,-99.99,,,-99.99,,2013-05-17 02:32:00,
2013-05-16 20:41:00,49.0,35.0,-100.00,NNW,330,4.0,8.0,58,-99.99,,,-99.99,,2013-05-17 02:41:00,
2013-05-16 20:52:00,49.0,34.0,-100.00,North,10,3.0,7.0,56,-99.99,,,0.00,,2013-05-17 02:52:00,
2013-05-16 21:01:00,49.0,34.0,-100.00,North,10,3.0,7.0,56,-99.99,,,0.00,,2013-05-17 03:01:00,
2013-05-16 21:11:00,48.0,35.0,-100.00,NW,320,3.0,4.0,60,-99.99,,,0.00,,2013-05-17 03:11:00,
2013-05-16 21:22:00,48.0,35.0,-100.00,NW,320,3.0,4.0,60,-99.99,,,0.00,,2013-05-17 03:22:00,
2013-05-16 21:34:00,47.0,37.0,-100.00,ESE,105,4.0,7.0,67,-99.99,,,0.00,,2013-05-17 03:34:00,
2013-05-16 21:43:00,47.0,37.0,-100.00,ESE,105,4.0,7.0,67,-99.99,,,0.00,,2013-05-17 03:43:00,
2013-05-16 21:53:00,46.0,37.0,-100.00,NE,40,4.0,5.0,71,-99.99,,,0.00,,2013-05-17 03:53:00,
2013-05-16 22:01:00,44.0,37.0,-100.00,NE,45,3.0,7.0,78,-99.99,,,0.00,,2013-05-17 04:01:00,
2013-05-16 22:02:00,46.0,37.0,-100.00,NE,40,4.0,5.0,71,-99.99,,,0.00,,2013-05-17 04:02:00,
2013-05-16 22:13:00,45.0,38.0,-100.00,ENE,70,6.0,9.0,77,-99.99,,,0.00,,2013-05-17 04:13:00,
2013-05-16 22:23:00,45.0,38.0,-100.00,ENE,70,6.0,9.0,77,-99.99,,,0.00,,2013-05-17 04:23:00,
2013-05-16 22:33:00,44.0,37.0,-100.00,NE,45,3.0,7.0,78,-99.99,,,0.00,,2013-05-17 04:33:00,
2013-05-16 22:40:00,43.0,36.0,-100.00,ENE,60,3.0,6.0,76,-99.99,,,0.00,,2013-05-17 04:40:00,
2013-05-16 22:43:00,44.0,37.0,-100.00,NE,45,3.0,7.0,78,-99.99,,,0.00,,2013-05-17 04:43:00,
2013-05-16 22:53:00,44.0,37.0,-100.00,NE,45,3.0,7.0,78,-99.99,,,0.00,,2013-05-17 04:53:00,
2013-05-16 23:14:00,42.0,36.0,-100.00,NE,40,3.0,4.0,77,-99.99,,,0.00,,2013-05-17 05:14:00,
2013-05-16 23:22:00,42.0,36.0,-100.00,NE,40,3.0,4.0,77,-99.99,,,0.00,,2013-05-17 05:22:00,
2013-05-16 23:32:00,43.0,36.0,-100.00,ENE,60,3.0,6.0,76,-99.99,,,0.00,,2013-05-17 05:32:00,